| time (UTC) | temp C | wind direction | speed KPH | gust KPH | rain 1hr cm | rain 24hr cm | rain mn cm | humidity % | barometer mb |
| 20260508002738 | 32 | 261 | 9.7 | 27.4 | 0.00 | 0.00 | 0.00 | 100 | 1009.4 |
| 20260508001737 | 32 | 233 | 20.9 | 33.8 | 0.00 | 0.00 | 0.00 | 100 | 1009.4 |
| 20260508001236 | 31 | 240 | 22.5 | 33.8 | 0.00 | 0.00 | 0.00 | 100 | 1009.4 |
| 20260508000737 | 31 | 244 | 17.7 | 27.4 | 0.00 | 0.00 | 0.00 | 100 | 1009.4 |
| 20260508000236 | 31 | 219 | 12.9 | 25.7 | 0.00 | 0.00 | 0.00 | 100 | 1009.4 |
| 20260507235735 | 31 | 253 | 8.0 | 29.0 | 0.00 | 0.00 | 0.00 | 100 | 1009.4 |
| 20260507235234 | 31 | 230 | 20.9 | 29.0 | 0.00 | 0.00 | 0.00 | 100 | 1009.4 |
| 20260507234733 | 31 | 222 | 12.9 | 24.1 | 0.00 | 0.00 | 0.00 | 100 | 1009.4 |
| 20260507234234 | 31 | 272 | 19.3 | 27.4 | 0.00 | 0.00 | 0.00 | 100 | 1009.4 |
| 20260507233953 | 30 | 298 | 6.4 | 27.4 | 0.00 | 0.00 | 0.00 | 100 | 1009.4 |
| 20260507233231 | 30 | 260 | 16.1 | 25.7 | 0.00 | 0.00 | 0.00 | 100 | 1009.4 |
| 20260507232732 | 31 | 257 | 16.1 | 25.7 | 0.00 | 0.00 | 0.00 | 100 | 1009.4 |
| 20260507232449 | 31 | 254 | 20.9 | 27.4 | 0.00 | 0.00 | 0.00 | 100 | 1009.4 |
| 20260507231730 | 31 | 261 | 19.3 | 30.6 | 0.00 | 0.00 | 0.00 | 100 | 1009.4 |
| 20260507230729 | 31 | 250 | 24.1 | 27.4 | 0.00 | 0.00 | 0.00 | 100 | 1009.4 |
| 20260507230228 | 31 | 258 | 9.7 | 27.4 | 0.00 | 0.00 | 0.00 | 100 | 1009.4 |
| 20260507225727 | 31 | 267 | 14.5 | 22.5 | 0.00 | 0.00 | 0.00 | 100 | 1009.4 |
| 20260507225228 | 30 | 261 | 9.7 | 24.1 | 0.00 | 0.00 | 0.00 | 100 | 1009.4 |
| 20260507224727 | 31 | 268 | 14.5 | 27.4 | 0.00 | 0.00 | 0.00 | 100 | 1009.4 |
| 20260507224226 | 30 | 270 | 9.7 | 32.2 | 0.00 | 0.00 | 0.00 | 100 | 1009.4 |
| 20260507223726 | 31 | 271 | 14.5 | 32.2 | 0.00 | 0.00 | 0.00 | 100 | 1009.4 |
| 20260507223225 | 31 | 268 | 20.9 | 35.4 | 0.00 | 0.00 | 0.00 | 100 | 1009.4 |
| 20260507222724 | 31 | 271 | 20.9 | 35.4 | 0.00 | 0.00 | 0.00 | 100 | 1009.4 |
| 20260507222223 | 32 | 223 | 17.7 | 20.9 | 0.00 | 0.00 | 0.00 | 100 | 1009.4 |
| 20260507221723 | 32 | 284 | 9.7 | 14.5 | 0.00 | 0.00 | 0.00 | 100 | 1009.4 |
| 20260507221222 | 31 | 320 | 3.2 | 16.1 | 0.00 | 0.00 | 0.00 | 100 | 1009.4 |
| 20260507220721 | 31 | 225 | 9.7 | 19.3 | 0.00 | 0.00 | 0.00 | 100 | 1009.4 |
| 20260507220221 | 31 | 135 | 14.5 | 19.3 | 0.00 | 0.00 | 0.00 | 100 | 1009.4 |
| 20260507215721 | 31 | 198 | 12.9 | 24.1 | 0.00 | 0.00 | 0.00 | 100 | 1009.4 |
| 20260507215220 | 31 | 205 | 16.1 | 24.1 | 0.00 | 0.00 | 0.00 | 100 | 1009.4 |
| 20260507214719 | 31 | 198 | 16.1 | 20.9 | 0.00 | 0.00 | 0.00 | 100 | 1009.4 |
| 20260507214219 | 31 | 181 | 14.5 | 20.9 | 0.00 | 0.00 | 0.00 | 100 | 1009.4 |
| 20260507213718 | 31 | 201 | 16.1 | 20.9 | 0.00 | 0.00 | 0.00 | 100 | 1009.4 |
| 20260507213217 | 31 | 188 | 9.7 | 17.7 | 0.00 | 0.00 | 0.00 | 100 | 1009.4 |
| 20260507212717 | 32 | 320 | 8.0 | 19.3 | 0.00 | 0.00 | 0.00 | 100 | 1009.4 |
| 20260507212436 | 30 | 320 | 9.7 | 20.9 | 0.00 | 0.00 | 0.00 | 100 | 1009.4 |
| 20260507211716 | 31 | 278 | 14.5 | 20.9 | 0.00 | 0.00 | 0.00 | 100 | 1009.4 |
| 20260507211215 | 31 | 260 | 8.0 | 19.3 | 0.00 | 0.00 | 0.00 | 100 | 1009.4 |
| 20260507210714 | 30 | 127 | 8.0 | 24.1 | 0.00 | 0.00 | 0.00 | 100 | 1009.4 |
| 20260507210213 | 30 | 239 | 14.5 | 24.1 | 0.00 | 0.00 | 0.00 | 100 | 1009.4 |
| 20260507205713 | 30 | 358 | 9.7 | 20.9 | 0.00 | 0.00 | 0.00 | 100 | 1009.4 |
| 20260507205213 | 30 | 257 | 14.5 | 25.7 | 0.00 | 0.00 | 0.00 | 100 | 1009.4 |
| 20260507204712 | 31 | 182 | 19.3 | 25.7 | 0.00 | 0.00 | 0.00 | 100 | 1009.4 |
| 20260507204211 | 32 | 243 | 11.3 | 24.1 | 0.00 | 0.00 | 0.00 | 100 | 1009.4 |
| 20260507203711 | 31 | 260 | 8.0 | 22.5 | 0.00 | 0.00 | 0.00 | 100 | 1009.4 |
| 20260507203210 | 31 | 253 | 1.6 | 22.5 | 0.00 | 0.00 | 0.00 | 100 | 1009.4 |
| 20260507202705 | 31 | 255 | 12.9 | 20.9 | 0.00 | 0.00 | 0.00 | 100 | 1009.4 |
| 20260507202422 | 31 | 255 | 9.7 | 20.9 | 0.00 | 0.00 | 0.00 | 100 | 1009.4 |
| 20260507201704 | 31 | 281 | 9.7 | 22.5 | 0.00 | 0.00 | 0.00 | 100 | 1009.4 |
| 20260507201204 | 30 | 184 | 14.5 | 30.6 | 0.00 | 0.00 | 0.00 | 100 | 1009.4 |
| 20260507200703 | 30 | 180 | 16.1 | 30.6 | 0.00 | 0.00 | 0.00 | 100 | 1009.4 |
| 20260507200202 | 30 | 223 | 12.9 | 30.6 | 0.00 | 0.00 | 0.00 | 100 | 1009.4 |
| 20260507195702 | 31 | 246 | 11.3 | 24.1 | 0.00 | 0.00 | 0.00 | 100 | 1009.4 |
| 20260507195201 | 30 | 244 | 12.9 | 24.1 | 0.00 | 0.00 | 0.00 | 100 | 1009.4 |
| 20260507194700 | 30 | 255 | 14.5 | 25.7 | 0.00 | 0.00 | 0.00 | 100 | 1009.4 |
| 20260507194200 | 30 | 212 | 17.7 | 25.7 | 0.00 | 0.00 | 0.00 | 100 | 1009.4 |
| 20260507193659 | 30 | 213 | 17.7 | 24.1 | 0.00 | 0.00 | 0.00 | 100 | 1009.4 |
| 20260507193158 | 31 | 195 | 6.4 | 24.1 | 0.00 | 0.00 | 0.00 | 100 | 1009.4 |
| 20260507192658 | 31 | 241 | 12.9 | 24.1 | 0.00 | 0.00 | 0.00 | 100 | 1009.4 |
| 20260507192157 | 32 | 246 | 9.7 | 22.5 | 0.00 | 0.00 | 0.00 | 100 | 1009.4 |
| 20260507191913 | 32 | 299 | 3.2 | 22.5 | 0.00 | 0.00 | 0.00 | 100 | 1009.4 |
| 20260507191156 | 32 | 288 | 9.7 | 22.5 | 0.00 | 0.00 | 0.00 | 100 | 1009.4 |
| 20260507190656 | 31 | 174 | 17.7 | 22.5 | 0.00 | 0.00 | 0.00 | 100 | 1009.4 |
| 20260507190413 | 31 | 244 | 9.7 | 20.9 | 0.00 | 0.00 | 0.00 | 100 | 1009.4 |
| 20260507185654 | 31 | 241 | 12.9 | 22.5 | 0.00 | 0.00 | 0.00 | 100 | 1009.4 |
| 20260507185154 | 31 | 352 | 9.7 | 22.5 | 0.00 | 0.00 | 0.00 | 100 | 1009.4 |
| 20260507184653 | 31 | 258 | 14.5 | 25.7 | 0.00 | 0.00 | 0.00 | 100 | 1009.4 |
| 20260507184420 | 30 | 226 | 12.9 | 25.7 | 0.00 | 0.00 | 0.00 | 100 | 1009.4 |
| 20260507183152 | 32 | 247 | 9.7 | 19.3 | 0.00 | 0.00 | 0.00 | 100 | 1009.4 |
| 20260507182651 | 31 | 198 | 9.7 | 20.9 | 0.00 | 0.00 | 0.00 | 100 | 1009.4 |
| 20260507182150 | 31 | 198 | 11.3 | 20.9 | 0.00 | 0.00 | 0.00 | 100 | 1009.4 |
| 20260507181650 | 31 | 150 | 11.3 | 20.9 | 0.00 | 0.00 | 0.00 | 100 | 1009.4 |
| 20260507181149 | 31 | 226 | 8.0 | 20.9 | 0.00 | 0.00 | 0.00 | 100 | 1009.4 |
| 20260507180648 | 31 | 233 | 11.3 | 20.9 | 0.00 | 0.00 | 0.00 | 100 | 1009.4 |
| 20260507180148 | 30 | 253 | 16.1 | 20.9 | 0.00 | 0.00 | 0.00 | 100 | 1009.4 |
| 20260507175647 | 31 | 236 | 12.9 | 17.7 | 0.00 | 0.00 | 0.00 | 100 | 1009.4 |
| 20260507175412 | 31 | 206 | 11.3 | 16.1 | 0.00 | 0.00 | 0.00 | 100 | 1009.4 |
| 20260507174915 | 31 | 229 | 6.4 | 16.1 | 0.00 | 0.00 | 0.00 | 100 | 1009.4 |
| 20260507174139 | 31 | 203 | 9.7 | 14.5 | 0.00 | 0.00 | 0.00 | 100 | 1009.4 |
| 20260507173638 | 30 | 177 | 9.7 | 14.5 | 0.00 | 0.00 | 0.00 | 100 | 1009.4 |
| 20260507173138 | 31 | 233 | 6.4 | 14.5 | 0.00 | 0.00 | 0.00 | 100 | 1009.4 |
| 20260507172637 | 30 | 227 | 6.4 | 14.5 | 0.00 | 0.00 | 0.00 | 100 | 1009.4 |
| 20260507172137 | 30 | 210 | 3.2 | 14.5 | 0.00 | 0.00 | 0.00 | 100 | 1009.4 |
| 20260507171636 | 30 | 239 | 3.2 | 16.1 | 0.00 | 0.00 | 0.00 | 100 | 1009.4 |
| 20260507170617 | 29 | 303 | 4.8 | 17.7 | 0.00 | 0.00 | 0.00 | 100 | 1009.4 |
| 20260507170116 | 29 | 254 | 8.0 | 16.1 | 0.00 | 0.00 | 0.00 | 100 | 1009.4 |
| 20260507165837 | 30 | 226 | 11.3 | 16.1 | 0.00 | 0.00 | 0.00 | 100 | 1009.4 |
| 20260507165115 | 30 | 250 | 9.7 | 16.1 | 0.00 | 0.00 | 0.00 | 100 | 1009.4 |
| 20260507164614 | 29 | 234 | 11.3 | 14.5 | 0.00 | 0.00 | 0.00 | 100 | 1009.4 |
| 20260507164114 | 29 | 265 | 6.4 | 11.3 | 0.00 | 0.00 | 0.00 | 100 | 1009.4 |
| 20260507163613 | 29 | 171 | 6.4 | 9.7 | 0.00 | 0.00 | 0.00 | 100 | 1009.4 |
| 20260507163113 | 28 | 220 | 3.2 | 14.5 | 0.00 | 0.00 | 0.00 | 100 | 1009.4 |
| 20260507162612 | 28 | 292 | 6.4 | 14.5 | 0.00 | 0.00 | 0.00 | 100 | 1009.4 |
| 20260507162111 | 28 | 7 | 9.7 | 12.9 | 0.00 | 0.00 | 0.00 | 100 | 1009.4 |
| 20260507161610 | 28 | 46 | 4.8 | 9.7 | 0.00 | 0.00 | 0.00 | 100 | 1009.4 |
| 20260507161109 | 28 | 317 | 4.8 | 9.7 | 0.00 | 0.00 | 0.00 | 100 | 1009.4 |
| 20260507160832 | 27 | 278 | 3.2 | 9.7 | 0.00 | 0.00 | 0.00 | 100 | 1009.4 |
| 20260507160109 | 27 | 255 | 6.4 | 9.7 | 0.00 | 0.00 | 0.00 | 100 | 1009.4 |
| 20260507155107 | 27 | 329 | 0.0 | 6.4 | 0.00 | 0.00 | 0.00 | 100 | 1009.4 |
| 20260507154545 | 26 | 298 | 0.0 | 8.0 | 0.00 | 0.00 | 0.00 | 100 | 1009.4 |
| 20260507154040 | 26 | 254 | 3.2 | 9.7 | 0.00 | 0.00 | 0.00 | 100 | 1009.4 |
| 20260507153540 | 26 | 230 | 0.0 | 9.7 | 0.00 | 0.00 | 0.00 | 100 | 1009.4 |
| 20260507153038 | 26 | 232 | 6.4 | 8.0 | 0.00 | 0.00 | 0.00 | 100 | 1009.4 |
| 20260507152756 | 26 | 239 | 3.2 | 8.0 | 0.00 | 0.00 | 0.00 | 100 | 1009.4 |
| 20260507151537 | 25 | 236 | 1.6 | 8.0 | 0.00 | 0.00 | 0.00 | 100 | 1009.4 |
| 20260507151034 | 25 | 277 | 4.8 | 8.0 | 0.00 | 0.00 | 0.00 | 100 | 1009.4 |
| 20260507150534 | 25 | 246 | 3.2 | 6.4 | 0.00 | 0.00 | 0.00 | 100 | 1009.4 |
| 20260507150033 | 25 | 233 | 0.0 | 8.0 | 0.00 | 0.00 | 0.00 | 100 | 1009.4 |
| 20260507145532 | 24 | 261 | 4.8 | 8.0 | 0.00 | 0.00 | 0.00 | 100 | 1009.4 |
| 20260507145032 | 24 | 251 | 4.8 | 8.0 | 0.00 | 0.00 | 0.00 | 100 | 1009.4 |
| 20260507144031 | 24 | 227 | 0.0 | 4.8 | 0.00 | 0.00 | 0.00 | 100 | 1009.4 |
| 20260507143530 | 23 | 19 | 0.0 | 0.0 | 0.00 | 0.00 | 0.00 | 100 | 1009.4 |
| 20260507143241 | 23 | 19 | 0.0 | 0.0 | 0.00 | 0.00 | 0.00 | 100 | 1009.4 |
| 20260507142508 | 23 | 19 | 0.0 | 0.0 | 0.00 | 0.00 | 0.00 | 100 | 1009.4 |
| 20260507141957 | 22 | 19 | 0.0 | 0.0 | 0.00 | 0.00 | 0.00 | 100 | 1009.4 |
| 20260507141431 | 21 | 19 | 0.0 | 0.0 | 0.00 | 0.00 | 0.00 | 100 | 1009.4 |
| 20260507140923 | 21 | 19 | 0.0 | 0.0 | 0.00 | 0.00 | 0.00 | 100 | 1009.4 |
| 20260507140424 | 20 | 19 | 0.0 | 0.0 | 0.00 | 0.00 | 0.00 | 100 | 1009.4 |
| 20260507135912 | 20 | 19 | 0.0 | 0.0 | 0.00 | 0.00 | 0.00 | 100 | 1009.4 |
| 20260507135406 | 19 | 19 | 0.0 | 0.0 | 0.00 | 0.00 | 0.00 | 100 | 1009.4 |
| 20260507134849 | 18 | 19 | 0.0 | 0.0 | 0.00 | 0.00 | 0.00 | 100 | 1009.4 |
| 20260507134344 | 18 | 19 | 0.0 | 0.0 | 0.00 | 0.00 | 0.00 | 100 | 1009.4 |
| 20260507133839 | 18 | 19 | 0.0 | 0.0 | 0.00 | 0.00 | 0.00 | 100 | 1009.4 |
| 20260507133330 | 17 | 19 | 0.0 | 0.0 | 0.00 | 0.00 | 0.00 | 100 | 1009.4 |
| 20260507132817 | 17 | 19 | 0.0 | 0.0 | 0.00 | 0.00 | 0.00 | 100 | 1009.4 |
| 20260507132307 | 16 | 19 | 0.0 | 0.0 | 0.00 | 0.00 | 0.00 | 100 | 1009.4 |
| 20260507131756 | 15 | 19 | 0.0 | 0.0 | 0.00 | 0.00 | 0.00 | 100 | 1009.4 |
| 20260507131248 | 15 | 19 | 0.0 | 4.8 | 0.00 | 0.00 | 0.00 | 100 | 1009.4 |
| 20260507130733 | 15 | 19 | 0.0 | 9.7 | 0.00 | 0.00 | 0.00 | 100 | 1009.4 |
| 20260507130452 | 15 | 358 | 6.4 | 9.7 | 0.00 | 0.00 | 0.00 | 100 | 1009.4 |
| 20260507125725 | 14 | 358 | 3.2 | 9.7 | 0.00 | 0.00 | 0.00 | 100 | 1009.4 |
| 20260507125219 | 14 | 354 | 4.8 | 9.7 | 0.00 | 0.00 | 0.00 | 100 | 1009.4 |
| 20260507124718 | 14 | 333 | 6.4 | 12.9 | 0.00 | 0.00 | 0.00 | 100 | 1009.4 |
| 20260507124218 | 14 | 343 | 4.8 | 12.9 | 0.00 | 0.00 | 0.00 | 100 | 1009.4 |
| 20260507123717 | 13 | 358 | 6.4 | 11.3 | 0.00 | 0.00 | 0.00 | 100 | 1009.4 |
| 20260507123217 | 13 | 310 | 4.8 | 8.0 | 0.00 | 0.00 | 0.00 | 100 | 1009.4 |
| 20260507122716 | 13 | 358 | 0.0 | 3.2 | 0.00 | 0.00 | 0.00 | 100 | 1009.4 |
| 20260507122213 | 13 | 358 | 0.0 | 6.4 | 0.00 | 0.00 | 0.00 | 100 | 1009.4 |
| 20260507121710 | 13 | 358 | 3.2 | 11.3 | 0.00 | 0.00 | 0.00 | 100 | 1009.4 |
| 20260507121208 | 14 | 358 | 6.4 | 11.3 | 0.00 | 0.00 | 0.00 | 100 | 1009.4 |
| 20260507120707 | 14 | 324 | 9.7 | 11.3 | 0.00 | 0.00 | 0.00 | 100 | 1009.4 |
| 20260507120207 | 15 | 330 | 8.0 | 12.9 | 0.00 | 0.00 | 0.00 | 100 | 1009.4 |
| 20260507115928 | 15 | 1 | 8.0 | 12.9 | 0.00 | 0.00 | 0.00 | 100 | 1009.4 |
| 20260507115205 | 14 | 7 | 11.3 | 12.9 | 0.00 | 0.00 | 0.00 | 100 | 1009.4 |
| 20260507114704 | 13 | 338 | 6.4 | 11.3 | 0.00 | 0.00 | 0.00 | 100 | 1009.4 |
| 20260507114204 | 13 | 326 | 9.7 | 9.7 | 0.00 | 0.00 | 0.00 | 100 | 1009.4 |
| 20260507113704 | 14 | 330 | 1.6 | 8.0 | 0.00 | 0.00 | 0.00 | 100 | 1009.4 |
| 20260507113424 | 14 | 358 | 1.6 | 8.0 | 0.00 | 0.00 | 0.00 | 100 | 1009.4 |
| 20260507112654 | 13 | 338 | 0.0 | 8.0 | 0.00 | 0.00 | 0.00 | 100 | 1009.4 |
| 20260507112151 | 14 | 7 | 6.4 | 8.0 | 0.00 | 0.00 | 0.00 | 100 | 1009.4 |
| 20260507111648 | 13 | 358 | 4.8 | 6.4 | 0.00 | 0.00 | 0.00 | 100 | 1009.4 |
| 20260507111148 | 14 | 355 | 0.0 | 11.3 | 0.00 | 0.00 | 0.00 | 100 | 1009.4 |
| 20260507110906 | 14 | 355 | 0.0 | 11.3 | 0.00 | 0.00 | 0.00 | 100 | 1009.4 |
| 20260507110139 | 14 | 358 | 8.0 | 11.3 | 0.00 | 0.00 | 0.00 | 100 | 1009.4 |
| 20260507105634 | 14 | 358 | 3.2 | 6.4 | 0.00 | 0.00 | 0.00 | 100 | 1009.4 |
| 20260507105133 | 14 | 358 | 0.0 | 0.0 | 0.00 | 0.00 | 0.00 | 100 | 1009.4 |
| 20260507104110 | 14 | 358 | 0.0 | 6.4 | 0.00 | 0.00 | 0.00 | 100 | 1009.4 |
| 20260507103558 | 13 | 358 | 0.0 | 6.4 | 0.00 | 0.00 | 0.00 | 100 | 1009.4 |
| 20260507103057 | 14 | 358 | 0.0 | 6.4 | 0.00 | 0.00 | 0.00 | 100 | 1009.4 |
| 20260507102541 | 14 | 358 | 0.0 | 6.4 | 0.00 | 0.00 | 0.00 | 100 | 1009.4 |
| 20260507102301 | 14 | 358 | 0.0 | 6.4 | 0.00 | 0.00 | 0.00 | 100 | 1009.4 |
| 20260507101526 | 14 | 333 | 0.0 | 9.7 | 0.00 | 0.00 | 0.00 | 100 | 1009.4 |
| 20260507101002 | 14 | 358 | 1.6 | 9.7 | 0.00 | 0.00 | 0.00 | 100 | 1009.4 |
| 20260507100458 | 14 | 338 | 3.2 | 9.7 | 0.00 | 0.00 | 0.00 | 100 | 1009.4 |
| 20260507095958 | 15 | 358 | 8.0 | 9.7 | 0.00 | 0.00 | 0.00 | 100 | 1009.4 |
| 20260507095457 | 15 | 358 | 0.0 | 0.0 | 0.00 | 0.00 | 0.00 | 100 | 1009.4 |
| 20260507094947 | 14 | 358 | 0.0 | 0.0 | 0.00 | 0.00 | 0.00 | 100 | 1009.4 |
| 20260507094420 | 14 | 358 | 0.0 | 1.6 | 0.00 | 0.00 | 0.00 | 100 | 1009.4 |
| 20260507094133 | 14 | 358 | 0.0 | 8.0 | 0.00 | 0.00 | 0.00 | 100 | 1009.4 |
| 20260507093410 | 15 | 358 | 0.0 | 8.0 | 0.00 | 0.00 | 0.00 | 100 | 1009.4 |
| 20260507092851 | 15 | 358 | 3.2 | 8.0 | 0.00 | 0.00 | 0.00 | 100 | 1009.4 |
| 20260507092350 | 15 | 358 | 1.6 | 6.4 | 0.00 | 0.00 | 0.00 | 100 | 1009.4 |
| 20260507092103 | 14 | 358 | 0.0 | 6.4 | 0.00 | 0.00 | 0.00 | 100 | 1009.4 |
| 20260507091331 | 14 | 331 | 0.0 | 6.4 | 0.00 | 0.00 | 0.00 | 100 | 1009.4 |
| 20260507090828 | 13 | 4 | 0.0 | 0.0 | 0.00 | 0.00 | 0.00 | 100 | 1009.4 |
| 20260507090319 | 14 | 4 | 0.0 | 0.0 | 0.00 | 0.00 | 0.00 | 100 | 1009.4 |
| 20260507085804 | 15 | 4 | 0.0 | 0.0 | 0.00 | 0.00 | 0.00 | 100 | 1009.4 |
| 20260507085256 | 15 | 4 | 0.0 | 0.0 | 0.00 | 0.00 | 0.00 | 100 | 1009.4 |
| 20260507084746 | 15 | 4 | 0.0 | 0.0 | 0.00 | 0.00 | 0.00 | 100 | 1009.4 |
| 20260507084245 | 15 | 4 | 0.0 | 0.0 | 0.00 | 0.00 | 0.00 | 100 | 1009.4 |
| 20260507083721 | 15 | 4 | 0.0 | 0.0 | 0.00 | 0.00 | 0.00 | 100 | 1009.4 |
| 20260507083211 | 15 | 4 | 0.0 | 0.0 | 0.00 | 0.00 | 0.00 | 100 | 1009.4 |
| 20260507082700 | 16 | 4 | 0.0 | 0.0 | 0.00 | 0.00 | 0.00 | 100 | 1009.4 |
| 20260507082148 | 16 | 4 | 0.0 | 4.8 | 0.00 | 0.00 | 0.00 | 100 | 1009.4 |
| 20260507081620 | 16 | 4 | 0.0 | 4.8 | 0.00 | 0.00 | 0.00 | 100 | 1009.4 |
| 20260507081111 | 16 | 4 | 0.0 | 9.7 | 0.00 | 0.00 | 0.00 | 100 | 1009.4 |
| 20260507080611 | 16 | 315 | 0.0 | 16.1 | 0.00 | 0.00 | 0.00 | 100 | 1009.4 |
| 20260507080046 | 16 | 315 | 1.6 | 17.7 | 0.00 | 0.00 | 0.00 | 100 | 1009.4 |
| 20260507075533 | 17 | 0 | 9.7 | 17.7 | 0.00 | 0.00 | 0.00 | 100 | 1009.4 |
| 20260507074532 | 15 | 54 | 1.6 | 8.0 | 0.00 | 0.00 | 0.00 | 100 | 1009.4 |
| 20260507074031 | 15 | 46 | 0.0 | 1.6 | 0.00 | 0.00 | 0.00 | 100 | 1009.4 |
| 20260507073520 | 14 | 46 | 0.0 | 1.6 | 0.00 | 0.00 | 0.00 | 100 | 1009.4 |
| 20260507073240 | 14 | 46 | 0.0 | 0.0 | 0.00 | 0.00 | 0.00 | 100 | 1009.4 |
| 20260507072457 | 15 | 46 | 0.0 | 0.0 | 0.00 | 0.00 | 0.00 | 100 | 1009.4 |
| 20260507072152 | 15 | 46 | 0.0 | 0.0 | 0.00 | 0.00 | 0.00 | 100 | 1009.4 |
| 20260507071645 | 14 | 46 | 0.0 | 0.0 | 0.00 | 0.00 | 0.00 | 100 | 1009.4 |
| 20260507070412 | 15 | 46 | 0.0 | 3.2 | 0.00 | 0.00 | 0.00 | 100 | 1009.4 |
| 20260507065859 | 15 | 46 | 0.0 | 3.2 | 0.00 | 0.00 | 0.00 | 100 | 1009.4 |
| 20260507065611 | 15 | 46 | 0.0 | 6.4 | 0.00 | 0.00 | 0.00 | 100 | 1009.4 |
| 20260507064821 | 14 | 46 | 0.0 | 6.4 | 0.00 | 0.00 | 0.00 | 100 | 1009.4 |
| 20260507064310 | 14 | 254 | 0.0 | 1.6 | 0.00 | 0.00 | 0.00 | 100 | 1009.4 |
| 20260507063804 | 15 | 120 | 0.0 | 0.0 | 0.00 | 0.00 | 0.00 | 100 | 1009.4 |
| 20260507063522 | 15 | 120 | 0.0 | 0.0 | 0.00 | 0.00 | 0.00 | 100 | 1009.4 |
| 20260507062758 | 15 | 120 | 0.0 | 0.0 | 0.00 | 0.00 | 0.00 | 100 | 1009.4 |
| 20260507062255 | 15 | 120 | 0.0 | 0.0 | 0.00 | 0.00 | 0.00 | 100 | 1009.4 |
| 20260507061755 | 15 | 120 | 0.0 | 0.0 | 0.00 | 0.00 | 0.00 | 100 | 1009.4 |
| 20260507061248 | 15 | 120 | 0.0 | 0.0 | 0.00 | 0.00 | 0.00 | 100 | 1009.4 |
| 20260507060735 | 15 | 120 | 0.0 | 0.0 | 0.00 | 0.00 | 0.00 | 100 | 1009.4 |
| 20260507060444 | 15 | 120 | 0.0 | 0.0 | 0.00 | 0.00 | 0.00 | 100 | 1009.4 |
| 20260507055714 | 15 | 120 | 0.0 | 0.0 | 0.00 | 0.00 | 0.00 | 100 | 1009.4 |
| 20260507055211 | 16 | 120 | 0.0 | 0.0 | 0.00 | 0.00 | 0.00 | 100 | 1009.4 |
| 20260507054706 | 16 | 120 | 0.0 | 0.0 | 0.00 | 0.00 | 0.00 | 100 | 1009.4 |
| 20260507054202 | 16 | 120 | 0.0 | 0.0 | 0.00 | 0.00 | 0.00 | 100 | 1009.4 |
| 20260507053643 | 16 | 120 | 0.0 | 0.0 | 0.00 | 0.00 | 0.00 | 100 | 1009.4 |
| 20260507053400 | 17 | 120 | 0.0 | 3.2 | 0.00 | 0.00 | 0.00 | 100 | 1009.4 |
| 20260507052635 | 17 | 120 | 0.0 | 3.2 | 0.00 | 0.00 | 0.00 | 100 | 1009.4 |
| 20260507052135 | 17 | 120 | 0.0 | 3.2 | 0.00 | 0.00 | 0.00 | 100 | 1009.4 |
| 20260507051628 | 17 | 257 | 0.0 | 0.0 | 0.00 | 0.00 | 0.00 | 100 | 1009.4 |
| 20260507051118 | 17 | 257 | 0.0 | 0.0 | 0.00 | 0.00 | 0.00 | 100 | 1009.4 |
| 20260507050617 | 17 | 257 | 0.0 | 0.0 | 0.00 | 0.00 | 0.00 | 100 | 1009.4 |
| 20260507050051 | 18 | 257 | 0.0 | 0.0 | 0.00 | 0.00 | 0.00 | 100 | 1009.4 |
| 20260507045804 | 18 | 257 | 0.0 | 0.0 | 0.00 | 0.00 | 0.00 | 100 | 1009.4 |
| 20260507045032 | 18 | 257 | 0.0 | 0.0 | 0.00 | 0.00 | 0.00 | 100 | 1009.4 |
| 20260507044520 | 19 | 257 | 0.0 | 6.4 | 0.00 | 0.00 | 0.00 | 100 | 1009.4 |
| 20260507044011 | 20 | 257 | 0.0 | 6.4 | 0.00 | 0.00 | 0.00 | 100 | 1009.4 |
| 20260507043511 | 21 | 257 | 0.0 | 6.4 | 0.00 | 0.00 | 0.00 | 100 | 1009.4 |
| 20260507043236 | 22 | 278 | 4.8 | 9.7 | 0.00 | 0.00 | 0.00 | 100 | 1009.4 |
| 20260507042507 | 22 | 272 | 6.4 | 9.7 | 0.00 | 0.00 | 0.00 | 100 | 1009.4 |
| 20260507042007 | 22 | 285 | 8.0 | 9.7 | 0.00 | 0.00 | 0.00 | 100 | 1009.4 |
| 20260507041506 | 22 | 265 | 8.0 | 9.7 | 0.00 | 0.00 | 0.00 | 100 | 1009.4 |
| 20260507041006 | 22 | 248 | 8.0 | 9.7 | 0.00 | 0.00 | 0.00 | 100 | 1009.4 |
| 20260507040505 | 22 | 254 | 6.4 | 8.0 | 0.00 | 0.00 | 0.00 | 100 | 1009.4 |
| 20260507040004 | 22 | 261 | 4.8 | 8.0 | 0.00 | 0.00 | 0.00 | 100 | 1009.4 |
| 20260507035503 | 22 | 274 | 4.8 | 9.7 | 0.00 | 0.00 | 0.00 | 100 | 1009.4 |
| 20260507035002 | 23 | 265 | 6.4 | 11.3 | 0.00 | 0.00 | 0.00 | 100 | 1009.4 |
| 20260507034720 | 23 | 257 | 8.0 | 11.3 | 0.00 | 0.00 | 0.00 | 100 | 1009.4 |
| 20260507034228 | 23 | 250 | 8.0 | 12.9 | 0.00 | 0.00 | 0.00 | 100 | 1009.4 |
| 20260507033725 | 23 | 258 | 8.0 | 14.5 | 0.00 | 0.00 | 0.00 | 100 | 1009.4 |
| 20260507033000 | 23 | 261 | 9.7 | 14.5 | 0.00 | 0.00 | 0.00 | 100 | 1009.4 |
| 20260507032500 | 23 | 258 | 11.3 | 16.1 | 0.00 | 0.00 | 0.00 | 100 | 1009.4 |
| 20260507032226 | 23 | 278 | 11.3 | 16.1 | 0.00 | 0.00 | 0.00 | 100 | 1009.4 |
| 20260507031458 | 23 | 261 | 12.9 | 16.1 | 0.00 | 0.00 | 0.00 | 100 | 1009.4 |
| 20260507030958 | 23 | 289 | 12.9 | 16.1 | 0.00 | 0.00 | 0.00 | 100 | 1009.4 |
| 20260507030458 | 23 | 260 | 11.3 | 16.1 | 0.00 | 0.00 | 0.00 | 100 | 1009.4 |
| 20260507025957 | 23 | 261 | 11.3 | 14.5 | 0.00 | 0.00 | 0.00 | 100 | 1009.4 |
| 20260507025456 | 23 | 274 | 11.3 | 14.5 | 0.00 | 0.00 | 0.00 | 100 | 1009.4 |
| 20260507024956 | 24 | 265 | 9.7 | 16.1 | 0.00 | 0.00 | 0.00 | 100 | 1009.4 |
| 20260507024455 | 24 | 282 | 9.7 | 17.7 | 0.00 | 0.00 | 0.00 | 100 | 1009.4 |
| 20260507023955 | 24 | 251 | 9.7 | 17.7 | 0.00 | 0.00 | 0.00 | 100 | 1009.4 |
| 20260507023454 | 24 | 254 | 9.7 | 14.5 | 0.00 | 0.00 | 0.00 | 100 | 1009.4 |
| 20260507022953 | 23 | 271 | 8.0 | 16.1 | 0.00 | 0.00 | 0.00 | 100 | 1009.4 |
| 20260507022453 | 24 | 265 | 9.7 | 17.7 | 0.00 | 0.00 | 0.00 | 100 | 1009.4 |
| 20260507022219 | 24 | 255 | 11.3 | 17.7 | 0.00 | 0.00 | 0.00 | 100 | 1009.4 |
| 20260507021451 | 24 | 230 | 11.3 | 14.5 | 0.00 | 0.00 | 0.00 | 100 | 1009.4 |
| 20260507020950 | 24 | 260 | 11.3 | 14.5 | 0.00 | 0.00 | 0.00 | 100 | 1009.4 |
| 20260507020717 | 25 | 258 | 9.7 | 14.5 | 0.00 | 0.00 | 0.00 | 100 | 1009.4 |
| 20260507020210 | 25 | 267 | 9.7 | 14.5 | 0.00 | 0.00 | 0.00 | 100 | 1009.4 |
| 20260507015447 | 25 | 271 | 9.7 | 16.1 | 0.00 | 0.00 | 0.00 | 100 | 1009.4 |
| 20260507014947 | 25 | 285 | 9.7 | 16.1 | 0.00 | 0.00 | 0.00 | 100 | 1009.4 |
| 20260507014446 | 25 | 277 | 14.5 | 16.1 | 0.00 | 0.00 | 0.00 | 100 | 1009.4 |
| 20260507013943 | 25 | 261 | 8.0 | 16.1 | 0.00 | 0.00 | 0.00 | 100 | 1009.4 |
| 20260507012942 | 26 | 255 | 8.0 | 14.5 | 0.00 | 0.00 | 0.00 | 100 | 1009.4 |
| 20260507012707 | 26 | 246 | 8.0 | 12.9 | 0.00 | 0.00 | 0.00 | 100 | 1009.4 |
| 20260507011941 | 26 | 248 | 4.8 | 17.7 | 0.00 | 0.00 | 0.00 | 100 | 1009.4 |
| 20260507011439 | 26 | 246 | 8.0 | 17.7 | 0.00 | 0.00 | 0.00 | 100 | 1009.4 |
| 20260507010439 | 26 | 261 | 8.0 | 16.1 | 0.00 | 0.00 | 0.00 | 100 | 1009.4 |
| 20260507005938 | 26 | 225 | 4.8 | 17.7 | 0.00 | 0.00 | 0.00 | 100 | 1009.4 |
| 20260507005658 | 26 | 291 | 9.7 | 19.3 | 0.00 | 0.00 | 0.00 | 100 | 1009.4 |
| 20260507004937 | 26 | 237 | 11.3 | 19.3 | 0.00 | 0.00 | 0.00 | 100 | 1009.4 |
| 20260507004436 | 26 | 247 | 14.5 | 16.1 | 0.00 | 0.00 | 0.00 | 100 | 1009.4 |
| 20260507003936 | 26 | 236 | 8.0 | 14.5 | 0.00 | 0.00 | 0.00 | 100 | 1009.4 |
| 20260507003653 | 26 | 250 | 9.7 | 17.7 | 0.00 | 0.00 | 0.00 | 100 | 1009.4 |